AirNav   Textron
 
 1332 users online  

6MD6 Um Charles Regional Medical Center Heliport
La Plata, Maryland, USA


FAA INFORMATION EFFECTIVE 12 OCTOBER 2017

Location

FAA Identifier: 6MD6
Lat/Long: 38-31-42.6300N / 076-58-15.5200W
38-31.710500N / 076-58.258667W
38.5285083 / -76.9709778
(estimated)
Elevation: 168 ft. / 51 m (estimated)
Time zone: UTC -4 (UTC -5 during Standard Time)
Zip code: 20646

Heliport Operations

Heliport use: Private use, MEDICAL USE.
Activation date: 03/2007
Control tower: no
ARTCC: WASHINGTON CENTER
FSS: LEESBURG FLIGHT SERVICE STATION
Attendance: UNATNDD
Wind indicator: yes
Segmented circle: no
Lights: ACTVT PERIMETER LGTS - 123.05.

Heliport Communications

WX ASOS at DCA (20 nm N): 132.65 (703-412-8140)

Nearby radio navigation aids

VOR radial/distance  VOR name  Freq  Var
OTTr235/15.0NOTTINGHAM VORTAC113.7010W
ADWr206/17.4ANDREWS VORTAC113.1010W
DCAr180/20.1WASHINGTON VOR/DME111.0009W
BRVr066/21.3BROOKE VORTAC114.5009W
PXTr308/30.5PATUXENT VORTAC117.6010W
AMLr144/33.6ARMEL VOR/DME113.5008W

 
NDB name  Hdg/Dist  Freq  Var  ID
DAVEE150/10.322309WDAA -.. .- .-
OXONN180/14.533211WDCA -.. -.-. .-
GEORGETOWN172/25.132309WGTN --. - -.
SHANNON065/27.523710WEZF . --.. ..-.
PATUXENT309/30.440010WNHK -. .... -.-

Heliport Services

Runway Information

Helipad H1

Dimensions: 42 x 42 ft. / 13 x 13 m
Surface: concrete
Runway edge lights: PERI
Latitude: 38-31.710500N
Longitude: 076-58.258667W
Elevation: 168.0 ft.
Traffic pattern: leftleft

Heliport Ownership and Management from official FAA records

Ownership: Privately-owned
Owner: UM CHARLES REGIONAL MEDICAL CENTER
701 E. CHARLES ST.
LA PLATA, MD 20646
Phone 301-609-4000
Manager: LAURI CRESS
701 E. CHARLES ST.
LA PLATA, MD 20646
Phone 301-609-4453
DIRECTOR OF FACILITIES.

Instrument Procedures

There are no published instrument procedures at 6MD6.

Some nearby airports with instrument procedures:

2W5 - Maryland Airport (6 nm NW)
KVKX - Potomac Airfield (13 nm N)
W32 - Washington Executive Airport/Hyde Field (13 nm N)
KDAA - Davison Army Airfield (15 nm NW)
KNYG - Quantico Marine Corps Airfield / Turner Field (16 nm W)
KADW - Joint Base Andrews (18 nm N)
KDCA - Ronald Reagan Washington National Airport (20 nm N)
 
Loc | Ops | Rwys | IFR | FBO | Links
Com | Nav | Svcs | Stats | Notes


 
Area around 6MD6 (Um Charles Regional Medical Center Heliport)
 
Road maps at: MapQuest Bing Google
 
Aerial photo
No photo
 
Sectional chart

 
Airport distance calculator
Flying to Um Charles Regional Medical Center Heliport? Find the distance to fly.

From to 6MD6

Sunrise and sunset
Times for 20-Oct-2017
 Local
(UTC-4)
 Zulu
(UTC)
Morning civil twilight06:5610:56
Sunrise07:2311:23
Sunset18:2322:23
Evening civil twilight18:4922:49

Current date and time
Zulu (UTC)  20-Oct-2017 20:34:44
Local (UTC-4)  20-Oct-2017 16:34:44
 
METAR
KVKX 
13nm N 
SuperAWOS
201955Z AUTO 00000KT 10SM 24/08 A3018
KDAA 
15nm NW 
201956Z AUTO 33007KT 10SM CLR 25/04 A3019 RMK AO2 SLP226 T02470039 $
KNYG 
15nm W 
201956Z 30007KT 10SM SCT250 25/07 A3020 RMK AO2 SLP227 T02500072
KADW 
18nm N 
201956Z AUTO 31006KT 10SM CLR 23/07 A3018 RMK AO2 SLP226 T02300067
KDCA 
20nm N 
201952Z 30004KT 10SM SCT250 24/07 A3019 RMK AO2 SLP224 T02440072
KRMN 
24nm W 
202015Z AUTO 35009KT 10SM CLR 24/06 A3023 RMK AO2 T02400061
TAF
KDAA 
15nm NW 
201700Z 2017/2123 33009KT 9999 FEW250 QNH3019INS WND VRB06KT AFT 2106 TX24/2020Z TN08/2111Z
KNYG 
15nm W 
2015/2115 31006KT 9999 BKN250 QNH3017INS FM210000 VRB03KT 9999 BKN250 QNH3020INS T24/2020Z T08/2110Z
KADW 
18nm N 
201709Z 2017/2123 32009KT 9999 FEW250 QNH3019INS WND VRB06KT AFT 2106 TX24/2019Z TN09/2111Z
KDCA 
20nm N 
201728Z 2018/2118 34010KT P6SM SKC FM210200 VRB04KT P6SM SKC
NOTAMs
Click for the latest NOTAMs
NOTAMs are issued by the DoD/FAA and will open in a separate window not controlled by AirNav.

 

 
 

Would you like to see your business listed on this page?

 If your business provides an interesting product or service to pilots, flight crews, aircraft, or users of the Um Charles Regional Medical Center Heliport, you should consider listing it here.  To start the listing process, click on the button below
 
Add a business
 

Other Pages about Um Charles Regional Medical Center Heliport

Update a link
 
Copyright © AirNav, LLC. All rights reserved. Privacy Policy  Contact